Simultaneous Nadir Overpasses (SNOs) Predictions

Prediction of SNOs between METOP-B and TERRA Satellite Orbit:

Table of predicted SNOs for the next 14.0 days since TLE Epoch: 9/2/2013
Index Date (METOP-B) Time (METOP-B) Lat,Lon (METOP-B) SZA (METOP-B ) Date (TERRA) Time (TERRA) Lat,Lon (TERRA) SZA (TERRA ) Distance(km) Time Diff (sec)
1 09/03/2013 16:46:33 81.30, -24.86 76.78 09/03/2013 16:46:41 81.30, -24.70 76.80 2.79 8
2 09/03/2013 17:37:12 -81.31, 143.34 103.10 09/03/2013 17:36:07 -81.31, 143.24 103.15 1.72 65
3 09/06/2013 11:30:24 -81.23,-129.28 102.61 09/06/2013 11:31:38 -81.11,-128.99 102.63 14.11 74
4 09/06/2013 12:20:54 81.31, 42.08 77.91 09/06/2013 12:20:55 81.31, 42.07 77.91 0.71 1
5 09/06/2013 13:11:35 -81.31,-150.52 102.07 09/06/2013 13:10:22 -81.31,-150.35 102.09 2.78 73
6 09/0
